[[{"header":{"parameterUnit":"m.s-1","parameterCategory":1,"la1":30.2991,"la2":30.254,"lo1":-89.0895,"lo2":-89.0444,"dy":0.0017,"dx":0.0017,"nx":28,"ny":28,"refTime":"2024-07-15T21:00:00:Z","depth":0,"parameterNumber":2,"parameterNumberName":"U-component_of_WINDS"},"data":[0,0,0,0,0,0,0,0,0,0,0,0,0,0,0,0,0,0,0,0,0,0,0,0,0,0,0,0,0,0,0,0,0,0,0,0,0,0,0,0,0,0,0,0,0,0,0,0,0,0,0,0,0,0,0,0,0,0,1.7068,1.7069,0,1.7169,1.7171,1.7172,1.7185,1.7184,1.7184,1.7183,1.7291,1.7295,1.7299,0,0,0,0,0,0,0,0,0,0,0,0,0,1.6891,1.6895,1.7068,1.7069,1.7071,1.7169,1.7171,1.7172,1.7186,1.7184,1.7183,1.7182,1.729,1.7295,1.7299,0,0,0,0,0,0,0,0,0,0,0,0,0,1.6978,1.6896,1.7068,1.7089,1.7092,1.7169,1.7171,1.7172,1.7186,1.7184,1.7183,1.7182,1.7289,1.7294,1.73,1.7364,0,0,1.7317,1.732,0,0,0,0,0,0,0,0,1.6973,1.6985,1.7085,1.7088,1.7091,1.7163,1.7148,1.7237,1.7186,1.715,1.7183,1.7181,1.725,1.7259,1.7281,1.7369,1.7374,1.7318,1.7321,1.7323,1.7325,0,0,0,0,0,0,0,1.6967,1.698,1.7108,1.7086,1.709,1.7095,1.7106,1.7165,1.7207,1.7153,1.7155,1.7166,1.7252,1.7276,1.7284,1.7375,1.7317,1.7322,1.7326,1.7328,1.7521,1.7523,0,0,0,0,0,0,1.6957,1.6975,1.7105,1.7111,1.7027,1.71,1.7112,1.7142,1.7207,1.7215,1.7167,1.7166,1.7267,1.7277,1.7288,1.7367,1.7323,1.7329,1.7332,1.7519,1.7521,1.7523,0,0,0,0,0,0,1.6953,1.6968,1.7101,1.7044,1.7061,1.7104,1.7138,1.7144,1.7168,1.7217,1.7225,1.7184,1.7266,1.728,1.7345,1.7371,1.7331,1.7337,1.7517,1.752,1.7522,1.7526,0,0,0,0,0,0,1.6948,1.6966,1.699,1.7044,1.7064,1.7155,1.7139,1.7147,1.7178,1.7177,1.7235,1.7243,1.7266,1.7336,1.735,1.7378,1.7341,1.7515,1.7518,1.7521,1.7524,1.7528,1.7532,0,0,0,0,0,1.6941,1.6988,1.6991,1.7007,1.7094,1.7156,1.7168,1.7192,1.718,1.7205,1.7236,1.7241,1.7366,1.7342,1.7359,1.7389,1.7514,1.7517,1.7521,1.7522,1.7528,1.7532,0,0,0,0,0,0,1.6938,1.6996,1.7,1.7065,1.7105,1.7158,1.719,1.7197,1.7243,1.7241,1.727,1.7283,1.7347,1.7374,1.7347,1.7454,1.7439,1.7446,1.7434,1.744,1.7444,1.7436,1.7346,0,0,0,0,0,1.6945,1.6989,1.7037,1.7091,1.711,1.7147,1.7175,1.719,1.7233,1.7251,1.7287,1.733,1.7379,1.7411,1.7459,1.7528,1.7541,1.7557,1.7561,1.7564,1.757,1.7609,1.7617,1.7536,1.7536,1.7536,0,0,1.696,1.6997,1.7023,1.7091,1.7124,1.717,1.7161,1.721,1.7245,1.7259,1.7321,1.735,1.74,1.7467,1.7499,1.7492,1.7596,1.7569,1.7571,1.7576,1.7614,1.7621,1.7628,1.7538,1.7538,1.7537,0,0,1.701,1.7042,1.709,1.7123,1.7172,1.7196,1.7207,1.7259,1.7278,1.7341,1.7352,1.7395,1.7478,1.7514,1.7543,1.7607,1.7613,1.7622,1.7644,1.7682,1.7688,1.7694,1.7717,1.7725,1.7627,1.7627,1.7627,0,1.7023,1.7091,1.7114,1.7163,1.7193,1.7205,1.7255,1.7286,1.7349,1.737,1.7362,1.7467,1.7502,1.7577,1.7593,1.7616,1.7631,1.7615,1.7685,1.7691,1.7697,1.7719,1.7728,1.7628,1.7628,1.7628,1.7628,0,1.7104,1.7152,1.7185,1.7243,1.7277,1.7326,1.7358,1.739,1.7402,1.7427,1.7491,1.7534,1.759,1.7609,1.7622,1.7687,1.7681,1.7679,1.7664,1.7705,1.7726,1.7735,1.7629,1.7629,1.7629,1.7628,0,0,1.7156,1.7226,1.7238,1.7264,1.732,1.7358,1.7408,1.7461,1.7488,1.7531,1.7574,1.7645,1.7642,1.7675,1.7693,1.7725,1.7773,1.7719,1.7721,1.7727,1.7847,1.7849,1.7858,1.7778,1.778,1.7781,1.7843,0,1.7213,1.73,1.7322,1.7397,1.7442,1.7454,1.7498,1.7537,1.7562,1.7605,1.7633,1.7682,1.7676,1.7695,1.7729,1.776,1.7798,1.7756,1.7819,1.7821,1.7806,1.7869,1.7871,1.7927,1.7851,1.7853,1.7854,0,1.729,1.7333,1.7412,1.7461,1.7481,1.752,1.7571,1.7611,1.7656,1.7672,1.7708,1.7722,1.7776,1.7758,1.7833,1.7805,1.7832,1.7852,1.7854,1.7861,1.784,1.7878,1.7946,1.7954,1.7867,1.7866,1.7865,0,1.732,1.7398,1.7455,1.7478,1.7537,1.7563,1.759,1.7633,1.7664,1.7709,1.773,1.7781,1.7809,1.7849,1.7877,1.7862,1.795,1.7935,1.7966,1.7965,1.7984,1.7982,1.8057,1.8002,1.8002,1.8001,1.8001,0,1.7381,1.7429,1.7469,1.7504,1.7558,1.7584,1.7638,1.7665,1.7703,1.7745,1.776,1.7799,1.7834,1.7878,1.79,1.7959,1.7972,1.7987,1.7993,1.7986,1.7984,1.8004,1.8001,1.8004,1.8003,1.8003,1.8002,0,1.7423,1.7451,1.7515,1.7565,1.7579,1.7617,1.766,1.7696,1.7721,1.7774,1.7788,1.7828,1.788,1.7912,1.798,1.7995,1.806,1.8064,1.8044,1.8046,1.8075,1.8072,1.8166,1.818,1.8115,1.8115,1.8116,0,1.746,1.7496,1.755,1.7578,1.7604,1.765,1.7681,1.7708,1.774,1.7794,1.7823,1.7877,1.7921,1.8005,1.8041,1.8092,1.8098,1.8127,1.8106,1.8097,1.8098,1.8095,1.8099,1.8131,1.8131,1.8132,1.8132,0,1.7522,1.7534,1.7577,1.7626,1.7662,1.7702,1.7742,1.7764,1.7799,1.7834,1.7887,1.7921,1.7989,1.8042,1.8097,1.8125,1.8135,1.8138,1.8148,1.8142,1.8128,1.8136,1.8053,1.8136,1.8136,1.8135,1.8135,1.8135,1.7563,1.7596,1.7639,1.7686,1.7719,1.7756,1.7791,1.782,1.7864,1.7921,1.7935,1.799,1.8036,1.8109,1.8139,1.8184,1.818,1.8194,1.8198,1.8201,1.8202,1.8121,1.8195,1.8195,1.8194,1.8194,1.8194,0,1.7626,1.7653,1.7697,1.7752,1.7789,1.7793,1.7838,1.787,1.7918,1.7958,1.8001,1.8062,1.8114,1.8153,1.8206,1.8235,1.824,1.8248,1.8246,1.8252,1.8203,1.8189,1.8242,1.8242,1.8242,1.8242,1.8242,1.8242,1.7663,1.7719,1.7736,1.7809,1.7838,1.7891,1.7916,1.795,1.7983,1.805,1.8092,1.8117,1.8158,1.8213,1.8261,1.8272,1.8291,1.8297,1.8308,1.8261,1.8256,1.8251,1.8238,1.8301,1.8301,1.8354,1.8355,1.8355]},{"header":{"parameterUnit":"m.s-1","parameterCategory":1,"la1":30.2991,"la2":30.254,"lo1":-89.0895,"lo2":-89.0444,"dy":0.0017,"dx":0.0017,"nx":28,"ny":28,"refTime":"2024-07-15T21:00:00:Z","depth":0,"parameterNumber":3,"parameterNumberName":"V-component_of_WINDS"},"data":[0,0,0,0,0,0,0,0,0,0,0,0,0,0,0,0,0,0,0,0,0,0,0,0,0,0,0,0,0,0,0,0,0,0,0,0,0,0,0,0,0,0,0,0,0,0,0,0,0,0,0,0,0,0,0,0,0,0,3.0399,3.0399,0,3.0413,3.0414,3.0414,3.0438,3.0439,3.0439,3.044,3.0451,3.0451,3.0451,0,0,0,0,0,0,0,0,0,0,0,0,0,3.0388,3.0388,3.0399,3.0399,3.0399,3.0413,3.0414,3.0414,3.0438,3.0439,3.0439,3.044,3.0451,3.0451,3.0451,0,0,0,0,0,0,0,0,0,0,0,0,0,3.0396,3.0388,3.0399,3.0413,3.0415,3.0413,3.0414,3.0414,3.0438,3.0439,3.0439,3.044,3.0451,3.0451,3.0451,3.0436,0,0,3.045,3.045,0,0,0,0,0,0,0,0,3.0396,3.0397,3.0411,3.0412,3.0414,3.0425,3.0414,3.0421,3.0438,3.0429,3.044,3.044,3.0442,3.0442,3.0443,3.0436,3.0437,3.045,3.045,3.045,3.045,0,0,0,0,0,0,0,3.0395,3.0396,3.0405,3.0411,3.0413,3.0417,3.0419,3.0415,3.0431,3.043,3.0432,3.0433,3.0442,3.0443,3.0444,3.0437,3.045,3.045,3.045,3.045,3.0415,3.0415,0,0,0,0,0,0,3.0393,3.0396,3.0404,3.0405,3.0406,3.0417,3.0419,3.0421,3.0431,3.0434,3.0433,3.0434,3.0443,3.0444,3.0444,3.0425,3.045,3.045,3.045,3.0416,3.0415,3.0414,0,0,0,0,0,0,3.0393,3.0394,3.0404,3.0401,3.0402,3.0417,3.0418,3.042,3.0421,3.0433,3.0436,3.0431,3.0444,3.0445,3.0437,3.0426,3.045,3.045,3.0417,3.0416,3.0415,3.0389,0,0,0,0,0,0,3.0392,3.0393,3.0389,3.0401,3.0403,3.0398,3.0417,3.042,3.0421,3.0424,3.0433,3.0435,3.0445,3.0437,3.0437,3.0426,3.045,3.0418,3.0416,3.0415,3.039,3.0387,3.0383,0,0,0,0,0,3.0392,3.0381,3.0389,3.039,3.0398,3.0397,3.0398,3.0411,3.0421,3.0415,3.0422,3.0434,3.0428,3.0437,3.0436,3.0425,3.0419,3.0417,3.0415,3.0392,3.0387,3.0383,0,0,0,0,0,0,3.0367,3.0383,3.0392,3.0384,3.0389,3.0401,3.0395,3.0406,3.0407,3.0409,3.0424,3.0425,3.0415,3.042,3.043,3.041,3.0425,3.0423,3.0407,3.0403,3.0399,3.0398,3.0449,0,0,0,0,0,3.0361,3.036,3.0374,3.0366,3.0368,3.0381,3.0381,3.0391,3.0396,3.0398,3.0405,3.0408,3.0406,3.0405,3.0405,3.0391,3.0392,3.0383,3.038,3.0377,3.0375,3.0365,3.0361,3.0408,3.0408,3.0408,0,0,3.0348,3.0356,3.0355,3.0361,3.0366,3.0363,3.0383,3.038,3.0377,3.0397,3.039,3.0395,3.04,3.0389,3.0384,3.0392,3.0362,3.0375,3.0372,3.0371,3.0363,3.0358,3.0354,3.0407,3.0407,3.0407,0,0,3.0322,3.033,3.0323,3.0327,3.0335,3.0343,3.0341,3.0352,3.0356,3.0349,3.0363,3.036,3.0358,3.036,3.0361,3.0334,3.0344,3.0333,3.0314,3.0305,3.0301,3.0298,3.0286,3.0282,3.0331,3.0331,3.0331,0,3.0305,3.0303,3.0318,3.0314,3.0315,3.0333,3.0325,3.0328,3.0334,3.0334,3.0343,3.0339,3.0344,3.0332,3.0325,3.0326,3.0323,3.0332,3.03,3.0297,3.0294,3.0283,3.0279,3.033,3.033,3.033,3.033,0,3.028,3.0278,3.0272,3.0278,3.0278,3.0272,3.0284,3.0283,3.0291,3.0298,3.029,3.0296,3.0296,3.0294,3.0303,3.0283,3.0287,3.0298,3.0313,3.0288,3.0278,3.0274,3.0327,3.0328,3.0328,3.0329,0,0,3.024,3.0253,3.025,3.0252,3.0261,3.0259,3.0252,3.0253,3.025,3.0254,3.0247,3.0244,3.0253,3.0254,3.0263,3.0255,3.023,3.0266,3.0266,3.0257,3.0206,3.0196,3.0191,3.0237,3.0236,3.0236,3.0204,0,3.0215,3.0206,3.0218,3.0206,3.0203,3.0219,3.0213,3.0217,3.0222,3.0219,3.0225,3.0222,3.0236,3.0236,3.0229,3.0235,3.0219,3.0237,3.0229,3.0228,3.0226,3.0186,3.0177,3.0147,3.0201,3.02,3.02,0,3.0185,3.0187,3.0174,3.0181,3.018,3.0175,3.0175,3.0173,3.0176,3.0181,3.0181,3.0191,3.0183,3.0198,3.0186,3.0198,3.0195,3.0197,3.0196,3.0194,3.0211,3.0181,3.0138,3.0132,3.0194,3.0194,3.0195,0,3.0154,3.0154,3.0145,3.0147,3.0155,3.0151,3.0154,3.0158,3.0157,3.0157,3.0155,3.0154,3.0153,3.015,3.0159,3.017,3.0144,3.0161,3.0146,3.0145,3.0139,3.0139,3.0092,3.014,3.014,3.014,3.014,0,3.0124,3.0115,3.0131,3.0126,3.0115,3.0129,3.0117,3.0122,3.0125,3.012,3.0134,3.0128,3.014,3.0135,3.0142,3.0129,3.0129,3.013,3.0132,3.0128,3.0128,3.0125,3.0127,3.0139,3.0139,3.0139,3.014,0,3.0088,3.0099,3.009,3.0099,3.0101,3.0092,3.0099,3.0093,3.01,3.0092,3.0091,3.01,3.0095,3.0103,3.0099,3.0103,3.0085,3.009,3.0084,3.0084,3.0068,3.0068,3.0016,3.0009,3.0063,3.0063,3.0063,0,3.0067,3.0061,3.0068,3.0066,3.0069,3.0065,3.0063,3.0076,3.0073,3.0075,3.0068,3.0064,3.0061,3.0051,3.0056,3.0051,3.0056,3.0038,3.0055,3.0051,3.0053,3.0052,3.005,3.0034,3.0033,3.0033,3.0032,0,3.0029,3.0034,3.0032,3.0031,3.0029,3.0029,3.003,3.0027,3.0039,3.0036,3.003,3.0028,3.0023,3.0017,3.0014,3.0015,3.0024,3.0027,3.0023,3.0018,3.0013,3.0013,3.0072,3.0028,3.0028,3.0028,3.0029,3.0029,2.9998,2.9992,2.9996,2.9993,2.9995,2.9995,2.9989,2.9994,2.999,2.9988,2.9995,2.9987,2.9988,2.9984,2.9984,2.9977,2.9984,2.9979,2.9977,2.9975,2.9971,3.0016,2.9977,2.9977,2.9977,2.9977,2.9977,0,2.9958,2.9962,2.9959,2.9959,2.9956,2.9967,2.9967,2.9963,2.9956,2.9957,2.9954,2.9946,2.994,2.9944,2.9939,2.9932,2.9936,2.9929,2.9929,2.9929,2.9966,2.9969,2.9926,2.9926,2.9926,2.9926,2.9926,2.9926,2.9937,2.9927,2.9932,2.9922,2.9925,2.9918,2.9917,2.9916,2.9916,2.9907,2.9902,2.9906,2.9907,2.9901,2.9895,2.9897,2.9893,2.9884,2.9887,2.9922,2.9926,2.9931,2.9934,2.9884,2.9884,2.985,2.985,2.9849]}]]